Location: Chillicothe
(39.7950°N, 93.5520°W)
Time: 10:20:40
(UTC-06:00)

Vanguard 3 - Pass Details

Date: 29 October 2019
Orbit: 508 x 3263 km, 33.3° (Epoch: 11 November)

Event Time Altitude Azimuth Distance (km) Brightness Sun altitude
Rises 19:55:55 0° 219° (SW) 5,662 12.1 -19.7°
Reaches altitude 10° 20:01:10 10° 208° (SSW) 4,114 11.1 -20.7°
Maximum altitude 20:08:32 23° 162° (SSE) 2,434 9.4 -22.2°
Enters shadow 20:10:20 21° 142° (SE) 2,343 9.1 -22.5°
